Current Version              Previous Version:    01  02  03  04  05  06  07  08  09  10  11  12  13  14  15  16  17  18  19  20  21  22  23  24  25  26  27  28  29  30  
   31  32  33  34  35  36  37  38  39  40  41  42  43  44  45  46  47  48  49  50  51  52  53  54  55  56  57  58  59  60  

[Printable]
385
ASUS44 KEWX 241402
RWRTX
SOUTH TEXAS REGIONAL WEATHER ROUNDUP
NATIONAL WEATHER SERVICE AUSTIN/SAN ANTONIO TX
900 AM CDT FRI OCT 24 2014

NOTE: "FAIR" INDICATED FEW OR NO CLOUDS BELOW 12,000 FEET WITH NO
SIGNIFICANT WEATHER AND/OR OBSTRUCTIONS TO VISIBILITY.

* - THESE STATIONS ARE NOT NWS OR FAA STATIONS...AND ARE NOT SUBJECT
    TO NWS AND FAA QUALITY CONTROL.

TXZ171-172-183>190-241500-
TEXAS HILL COUNTRY AND EDWARDS PLATEAU

CITY           SKY/WX    TMP DP  RH WIND       PRES   REMARKS
JUNCTION       SUNNY     55  52  89 W3        30.18R
*LLANO         NOT AVBL
BURNET         SUNNY     64  56  75 CALM      30.20R
*HORSESHOE BAY SUNNY     64  60  85 CALM      30.17R
*KERRVILLE     SUNNY     56  55  94 CALM      30.19R FOG
*FREDERICKSBRG SUNNY     57  55  92 CALM      30.18R
*ROCKSPRINGS   SUNNY     61  57  88 SE5       30.21R
*BOERNE STAGE  SUNNY     63  61  94 CALM      30.19R
*CASTROVILLE   SUNNY     61  55  78 NW3       30.18R
HONDO          SUNNY     60  58  92 N3        30.18R
*UVALDE        SUNNY     63  60  90 NE3       30.18R
DEL RIO        SUNNY     65  59  81 SE3       30.15R
LAUGHLIN AFB   SUNNY     63  60  88 SE7       30.15R
CARRIZO SPRGS  SUNNY     61  59  94 CALM      30.15R
$$

TXZ173-191>194-202-209-217>225-228-241500-
CENTRAL AND SOUTH CENTRAL TEXAS

CITY           SKY/WX    TMP DP  RH WIND       PRES   REMARKS
GEORGETOWN     SUNNY     63  55  77 CALM      30.17R
AUSTIN/BERGSTM MOSUNNY   62  57  83 CALM      30.16R
AUSTIN/MABRY   SUNNY     64  57  78 CALM      30.17R
*AUSTIN/EXEC   SUNNY     61  55  82 SE3       30.18R
*LAGO VISTA    SUNNY     66  57  72 S3        30.18R
SAN MARCOS     SUNNY     63  54  72 CALM      30.18R
NEW BRAUNFELS  SUNNY     64  60  87 CALM      30.16R
RANDOLPH AFB   SUNNY     63  57  79 NW2       30.17R
PT SAN ANTONIO SUNNY     65  58  79 NW1       30.15R
SAN ANTONIO    SUNNY     66  58  75 CALM      30.17R
STINSON FIELD  SUNNY     66  58  75 CALM      30.15R
*PLEASANTON    SUNNY     60  57  87 CALM      30.16R
*LA GRANGE     SUNNY     62  58  88 CALM      30.15R
*GIDDINGS      PTSUNNY   58  55  91 CALM      30.20R
*GONZALES      SUNNY     61  57  88 CALM      30.16R
$$

TXZ163>164-176>182-195>201-210>213-226-227-235-241500-
SOUTHEAST TEXAS

CITY           SKY/WX    TMP DP  RH WIND       PRES   REMARKS
COLLEGE STN    CLOUDY    61  53  75 E5        30.18R
*BRYAN         MOSUNNY   58  56  94 CALM      30.20R
*CALDWELL      PTSUNNY   61  55  82 CALM      30.20R
*CROCKETT      SUNNY     61  57  88 CALM      30.21R
*BRENHAM       SUNNY     59  56  91 CALM      30.18R
HUNTSVILLE     SUNNY     58  53  84 CALM      30.18R
CONROE         SUNNY     58  54  86 CALM      30.18R
HOUSTON BUSH   SUNNY     59  53  80 NE5       30.17R
HOUSTON HOBBY  SUNNY     62  55  77 NE7       30.16R
*HOUSTON SW AP SUNNY     55  52  89 N5        30.17R
PEARLAND       SUNNY     63  56  78 NE6       30.17R
HOUSTON HOOKS  SUNNY     59  53  80 E5        30.18R
ELLINGTON FLD  SUNNY     63  55  77 N7        30.17R
SUGAR LAND     SUNNY     62  55  77 NE6       30.16R
*HOUSTON EXEC  SUNNY     57 N/A N/A NE3       30.18R
*CLEVELAND MUN NOT AVBL
*WHARTON       SUNNY     60  56  88 NE3       30.16R
*COLUMBUS      FAIR      60  56  86 NE3       30.16R
$$

TXZ214>216-236>238-241500-
THE UPPER TEXAS COAST

CITY           SKY/WX    TMP DP  RH WIND       PRES   REMARKS
*ORANGE        SUNNY    N/A N/A N/A CALM      30.17R
PORT ARTHUR    SUNNY     59  53  80 NE8       30.15R
GALVESTON      SUNNY     66  56  70 NE10      30.15R
ANGLETON       SUNNY     61  59  93 N6        30.15R
*BAY CITY        N/A     63  60  92 NE3       30.15R
PALACIOS       SUNNY     63  58  83 NE7       30.14R
$$

TXZ229>234-239>247-241500-
TEXAS COASTAL BEND AND RIO GRANDE PLAINS

CITY           SKY/WX    TMP DP  RH WIND       PRES   REMARKS
VICTORIA       SUNNY     64  57  78 NE7       30.16R
*BEEVILLE      SUNNY     65  61  86 NE3       30.15R
ROCKPORT       SUNNY     70  64  81 NE6       30.13R
*PORT ARANSAS  SUNNY     72  66  80 N9        30.13R
*PORT LAVACA   SUNNY     65  60  83 NE8       30.15R
*INGLESIDE     SUNNY     65  64  95 CALM      30.12R FOG
CORPUS CHRISTI MOSUNNY   68  65  90 N5        30.13R
CORPUS NAS     SUNNY     74  68  81 N10       30.12R
*ROBSTOWN      HVY RAIN  65  64  96 N5        30.13R
ALICE          SUNNY     68  64  87 N3        30.14R FOG
KINGSVILLE NAS MOSUNNY   68  67  96 N5        30.14R FOG
COTULLA        MOSUNNY   67  60  78 CALM      30.15R
*FAITH RANCH   SUNNY     64  61  88 SE5       30.15R
LAREDO         SUNNY     68  63  84 CALM      30.17R
$$

TXZ248>255-241500-
DEEP SOUTH TEXAS

CITY           SKY/WX    TMP DP  RH WIND       PRES   REMARKS
BROWNSVILLE    SUNNY     74  68  81 N5        30.12R
PORT ISABEL    SUNNY     75  69  81 N5        30.11R
*SOUTH PADRE   SUNNY     77  64  65 N9        30.11R
HARLINGEN      SUNNY     70  67  90 N3        30.12R
*HEBBRONVILLE  SUNNY     65  64  94 CALM      30.16R
MCALLEN        SUNNY     70  65  84 N3        30.14R
*WESLACO       SUNNY     68  64  86 CALM      30.13R FOG
FALFURRIAS     SUNNY     64  62  94 CALM      30.13R
EDINBURG       SUNNY     67  65  91 N3        30.14R FOG
*ZAPATA        SUNNY     63  61  95 CALM      30.14R
$$

TXZ213>215-236>238-242>244-246-247-251-254-255-241500-
CMAN STATIONS

STATION/POSITION TIME  TEMP    WIND        PRES    WAVE
                       AIR SEA DIR/SP/G            HT/PER
                 (UTC) (F)     (DEG/KT/KT) (MB)    (FT/S)
SABINE PASS      1300   57 72   30/  7/ 10 1020.7
SEA RIM ST PARK  1300   56      20/  2/  2 1021.1
NORTH JETTY/GLS  1300   64 74   60/ 12/ 13   N/A
EAGLE POINT      1300   64 72   70/ 11/ 12 1020.8
MORGANS POINT    1300   59      50/  7/  9 1021.0
MISSION/ARANSAS  1300           30/  9     1021.0
PORT O`CONNOR    1300           30/ 10/ 12   N/A
PORT ARANSAS     1300   71 78   10/  7/  9 1020.1
MALAQUITE BEACH  1300   73 77  350/  6/  7 1019.2
BAFFIN BAY       1300   68 81  340/  8/  8 1019.7
PORT ISABEL      1300   77 78  360/  6/ 10 1019.2
$$

GMZ080-GMZ150>470-241500-
OFFSHORE BUOY REPORTS

STATION/POSITION TIME  TEMP    WIND        PRES    WAVE
                       AIR SEA DIR/SP/G            HT/PER
                 (UTC) (F)     (DEG/KT/KT) (MB)    (FT/S)
20 E GALVESTON   1400   68 77   30/ 10/ 14 1020.1    2/ 6
90 E PT ARANSAS  1400   75 81   20/ 10/ 12 1020.0    4/ 8
35 NE PT MANSFLD 1300   76 80   30/ 10/ 12 1018.5    3/ 8
200 E PT ISABEL  1300   76 81   20/ 14/ 17 1017.5    5/ 8
$$